Regional Weather Roundup
Issued by NWS

Home | Current Version | Previous Version | Graphics & Text | Print | Product List | Glossary On
Versions: 1 2 3 4 5 6 7 8 9 10 11 12 13 14 15 16 17 18 19 20 21 22 23 24 25 26 27 28 29 30 31 32 33 34 35 36 37 38 39 40 41 42 43 44 45 46 47 48 49 50
109
ASUS43 KOAX 251002
RWRNE

WEATHER ROUNDUP FOR NEBRASKA
NATIONAL WEATHER SERVICE OMAHA NE
500 AM CDT TUE APR 25 2017

NOTES: SATELLITE DATA IS BEING USED TO AUGMENT CLOUD COVER ABOVE
       12000 FEET.
       "FAIR" INDICATES FEW OR NO CLOUDS BELOW 12,000 FEET WITH NO
       SIGNIFICANT WEATHER AND/OR OBSTRUCTIONS TO VISIBILITY.

  * THESE STATIONS DO NOT REPORT WEATHER SUCH AS RAIN...SNOW OR FOG.

NEZ001>004-019>022-054>056-251100-
NEBRASKA PANHANDLE

CITY           SKY/WX    TMP DP  RH WIND       PRES   REMARKS
SCOTTSBLUFF    CLOUDY    45  42  89 CALM      29.51F
ALLIANCE       LGT RAIN  45  43  93 E9        29.54R
CHADRON        CLOUDY    43  41  93 NE14      29.54R
KIMBALL        CLOUDY    44  42  94 SW3       29.55R
SIDNEY         LGT RAIN  43  42  97 SW5       29.57R
$$

NEZ057>060-069>072-079>082-251100-
SOUTHWEST NEBRASKA

CITY           SKY/WX    TMP DP  RH WIND       PRES   REMARKS
NORTH PLATTE   CLOUDY    47  45  93 VRB5      29.48R
IMPERIAL       CLOUDY    48  44  86 NW14G25   29.55R
LEXINGTON      TSTM      46  41  82 NE9       29.51R
MCCOOK         CLOUDY    47  45  93 E14       29.44F
OGALLALA       RAIN      47  46  96 CALM      29.54R
$$

NEZ005>010-023>029-035>040-094-251100-
NORTH CENTRAL NEBRASKA

CITY           SKY/WX    TMP DP  RH WIND       PRES   REMARKS
VALENTINE      CLOUDY    37  33  85 N9        29.63R WCI  30
AINSWORTH      CLOUDY    38  37  97 NE15      29.59F WCI  29
BROKEN BOW     LGT RAIN  45  40  82 E9        29.51S
O`NEILL        CLOUDY    40  37  86 N13       29.57F WCI  33
ORD            CLOUDY    45  39  79 E7        29.54S
THEDFORD       LGT RAIN  42  39  88 NE14G20   29.54R
$$

NEZ041-046>049-061>064-073>077-083>087-251100-
SOUTH CENTRAL NEBRASKA

CITY           SKY/WX    TMP DP  RH WIND       PRES   REMARKS
GRAND ISLAND   CLOUDY    46  41  82 N15G25    29.51F
AURORA         LGT RAIN  46  42  87 N22G28    29.51F
HASTINGS       CLOUDY    47  41  80 NE16      29.50F
HEBRON         CLOUDY    49  44  80 NE14      29.45F
HOLDREGE       CLOUDY    47  40  76 E12       29.47S
KEARNEY *      CLOUDY    46  39  76 NE20      29.47F
YORK           LGT RAIN  46  43  87 N16       29.53S
$$

NEZ011>018-030>034-042>045-251100-
NORTHEAST NEBRASKA

CITY           SKY/WX    TMP DP  RH WIND       PRES   REMARKS
NORFOLK        CLOUDY    42  36  79 N9        29.54F
ALBION         CLOUDY    46  38  76 N6        29.54S
BLAIR          CLOUDY    50  43  77 N15       29.50R
FREMONT        CLOUDY    47  40  76 N10G17    29.53R
TEKAMAH        CLOUDY    48  41  76 N14       29.52S
WAYNE          CLOUDY    41  38  90 N14       29.55F
$$

NEZ050>053-065>068-078-088>093-251100-
SOUTHEAST NEBRASKA

CITY           SKY/WX    TMP DP  RH WIND       PRES   REMARKS
LINCOLN        LGT RAIN  50  42  74 N6        29.56R
OMAHA EPPLEY   CLOUDY    52  42  69 N8        29.51R
BEATRICE       RAIN      52  44  74 N9        29.52R
FALLS CITY     CLOUDY    58  47  66 S3        29.50R
NEBRASKA CITY  CLOUDY    55  43  63 SW7       29.51R
PLATTSMOUTH    MOCLDY    52  44  74 W3        29.52R
$$

NEZ044-045-051>053-067-251100-
OMAHA AREA

CITY           SKY/WX    TMP DP  RH WIND       PRES   REMARKS
OMAHA EPPLEY   CLOUDY    52  42  69 N8        29.51R
BLAIR          CLOUDY    50  43  77 N15       29.50R
FREMONT        CLOUDY    47  40  76 N10G17    29.53R
MILLARD        CLOUDY    55  45  69 CALM      29.53R
OFFUTT AFB     MOCLDY    53  43  68 N3        29.51R
PLATTSMOUTH    MOCLDY    52  44  74 W3        29.52R
WAHOO          FAIR      48  41  75 NW7       29.56R
$$




USA.gov is the U.S. government's official web portal to all federal, state and local government web resources and services.